#timestamp,LO_Frequency,Hit 
1503043215.8,286046986.0,N
1503043235.6,286046985.7,P
1503043255.5,286047001.1,N
1503043275.3,286047002.5,N
1503043295.1,286046998.9,N
1503043315.9,286046995.6,N
1503043335.7,286046995.4,N
1503043355.5,286046992.2,N
1503043375.4,286046992.7,N
1503043395.2,286046994.8,N
1503043415.0,286046991.7,N
1503043415.9,286046991.7,N
1503043435.8,286046994.5,N
1503043455.6,286046994.2,N
1503043475.4,286046997.8,N
1503043495.3,286046999.2,N
1503043515.1,286046999.0,N
1503043516.0,286046999.0,N
1503043535.8,286047001.0,N
1503043555.7,286046999.3,N
1503043575.5,286046997.2,N
1503043595.3,286047001.2,N
1503043615.1,286047002.7,N
1503043635.9,286046995.8,N
1503043655.7,286046991.8,N
1503043675.5,286046992.3,N
1503043695.4,286046991.4,N
1503043715.2,286046991.3,N
1503043735.0,286046990.5,N
1503043735.9,286046990.5,N
1503043755.8,286046990.2,N
1503043775.6,286046987.0,P
1503043795.4,286046989.9,N
1503043815.3,286046982.8,P
1503043835.1,286046978.0,P
1503043855.9,286046984.2,N
1503043875.7,286046985.0,P
1503043895.5,286046977.4,P
1503043915.4,286046997.5,N
1503043935.2,286046993.4,N
1503043955.0,286046991.4,N
1503043955.9,286046991.4,N
1503043975.8,286046986.3,N
1503043995.6,286046981.7,N
1503044015.4,286046982.0,N
1503044035.2,286046983.4,N
1503044055.1,286046980.5,P
1503044056.0,286046980.5,P
1503044075.8,286046994.8,N
1503044095.7,286046987.8,N
1503044115.5,286046986.3,N
1503044135.3,286046986.6,N
1503044155.2,286046985.9,P
1503044175.9,286047003.6,P
1503044195.7,286047003.5,N
1503044215.6,286047003.4,N
1503044235.4,286047006.1,N
1503044255.2,286047009.6,N
1503044275.0,286047012.4,N
1503044276.0,286047012.4,N
1503044295.8,286047008.7,N
1503044315.6,286047007.1,N
1503044335.4,286047003.8,N
1503044355.3,286047001.0,N
1503044375.1,286047000.1,N
1503044395.3,286047001.8,N
1503044415.1,286046995.5,N
1503044435.9,286046991.8,N
1503044455.7,286046994.0,N
1503044475.5,286046993.8,N
1503044495.4,286046996.3,N
1503044515.2,286046999.3,N
1503044535.0,286047002.1,N
1503044535.9,286047002.1,N
1503044555.8,286047005.2,N
1503044575.6,286047006.3,N
1503044595.4,286047010.4,N
1503044615.3,286047009.6,N
1503044635.1,286047011.6,N
1503044636.0,286047011.6,N
1503044655.8,286047008.8,N
1503044675.7,286047009.1,N
1503044695.5,286047005.6,N
1503044715.3,286046998.7,N
1503044735.2,286046996.0,N
1503044755.9,286046992.8,N
1503044775.7,286046991.0,N
1503044795.6,286046991.1,N
1503044815.4,286046989.0,N
1503044835.2,286046988.0,N
1503044855.0,286046988.0,N
1503044855.9,286046988.0,N
1503044875.8,286046987.4,N
1503044895.6,286046990.2,N
1503044915.4,286046987.2,N
1503044935.3,286046983.9,N
1503044955.1,286046984.4,N
1503044975.8,286046982.9,N
1503044995.7,286046981.9,N
1503045015.5,286046975.9,N
1503045035.3,286046975.9,N
1503045055.2,286046978.1,N
1503045075.9,286046978.5,N
1503045095.7,286046975.2,N
1503045115.6,286046971.6,N
1503045135.4,286046966.4,N
1503045155.2,286046967.1,N
1503045175.0,286046966.8,N
1503045176.0,286046966.8,N
1503045195.8,286046966.9,N
1503045215.6,286046966.9,N
1503045235.5,286046964.9,P
1503045255.3,286046977.4,N
1503045275.1,286046977.6,N
1503045295.9,286046977.4,P
1503045315.7,286047007.2,P
1503045335.5,286047006.8,N
1503045355.4,286047005.8,N
1503045375.7,286047002.0,N
1503045395.5,286047002.6,N
1503045415.4,286046999.5,N
1503045435.2,286046997.0,N
1503045455.0,286046998.6,N
1503045456.0,286046998.6,N
1503045475.8,286047000.9,N
1503045495.6,286047002.8,N
1503045515.5,286047000.1,N
1503045535.3,286047001.7,N
1503045555.1,286047003.1,N
1503045575.8,286047001.7,N
1503045595.7,286046996.8,N
1503045615.5,286046997.0,N
1503045635.3,286047000.1,N
1503045655.2,286047001.4,N
1503045675.0,286047000.9,N
1503045675.9,286047000.9,N
1503045695.7,286047000.7,N
1503045715.6,286047002.3,N
1503045735.4,286047003.1,N
1503045755.2,286047003.6,N
1503045775.1,286047002.0,N
1503045776.0,286047002.0,N
1503045795.8,286047002.2,N
1503045815.6,286047002.3,N
1503045835.5,286047003.7,N
1503045855.3,286047001.7,N
1503045875.1,286046999.9,N
1503045895.9,286047000.8,N
1503045915.7,286047000.9,N
1503045935.5,286046997.4,N
1503045955.4,286046993.7,P
1503045975.2,286046992.6,N
1503045995.0,286046991.0,N
1503045995.9,286046991.0,N
1503046015.8,286046987.6,P
1503046035.6,286046996.0,N
1503046055.4,286046995.9,N
1503046075.3,286046996.6,N
1503046095.1,286047002.5,N
1503046096.0,286047002.5,N
1503046115.8,286046998.1,N
1503046135.7,286046998.9,N
1503046155.5,286047000.0,N
1503046175.3,286047005.0,N
1503046195.2,286047001.6,N
1503046215.9,286047001.0,N
1503046235.7,286046999.1,N
1503046255.5,286046994.6,N
1503046275.4,286046990.1,N
1503046295.2,286046993.6,N
1503046315.0,286046996.0,N
1503046316.0,286046996.0,N
1503046335.8,286046996.2,N
1503046355.6,286046996.2,N
1503046375.4,286046992.2,N
1503046395.3,286046990.2,N
1503046415.1,286046990.8,N
1503046435.8,286046990.9,N
1503046455.7,286046990.1,N
1503046475.5,286046987.8,N
1503046495.3,286046987.3,N
1503046515.2,286046990.3,N
1503046535.9,286046992.4,N
1503046555.7,286046988.6,N
1503046575.6,286046986.0,N
1503046595.4,286046987.1,N
1503046615.2,286046985.9,N
1503046635.1,286046989.0,N
1503046636.0,286046989.0,N
1503046655.8,286046991.1,N
1503046675.6,286046991.5,N
1503046695.5,286046988.3,N
1503046715.3,286046986.5,N
1503046735.1,286046985.0,P
1503046755.9,286046992.9,N
1503046775.7,286046995.9,N
1503046795.5,286046996.2,N
